333P/LINEAR (2024)

Japanese version
Home page
Updated on April 11, 2024

---------------------------------------------------------------------

* Profile

* Orbital Elements

Epoch 2024 Mar. 31.0 TT = JDT 2460400.5
T 2024 Nov. 29.29847 TT                                 Rudenko
q   1.1130376            (2000.0)            P               Q
n   0.11366290     Peri.   26.00951     -0.12525236     +0.73227666
a   4.2207559      Node   115.70166     +0.73020191     -0.38872198
e   0.7362943      Incl.  132.02200     +0.67165246     +0.55916555
P   8.67
>From 696 observations 2007 Nov. 4-2024 Mar. 9, mean residual 0".8.

* Finding Charts

* Magnitudes Graph

        H = 15.0  G = 0.15               [   ,-55]  (             - 2024 Oct.  5)
        m1 = 6.5 + 5 log d + 80   log r  [-55,-20]  (2024 Oct.  5 - 2024 Nov.  9)
        m1 = 9.5 + 5 log d + 30.0 log r  [-20,108]  (2024 Nov.  9 - 2025 Mar. 17)
        H = 15.0  G = 0.15               [108,   ]  (2025 Mar. 17 -             )

---------------------------------------------------------------------

The orbital elements are published on M.P.E.C. 2024-E157.
The charts are made with StellaNavigator Ver.10 (AstroArts).
The magnitudes graphs are made with Comet for Windows.

---------------------------------------------------------------------

Copyright(C) Seiichi Yoshida (comet@aerith.net). All rights reserved.